Location: Cabeza de los Veneras
(40.2000°N, 5.2000°W)
Time: 03:52:18
(UTC+00:00)

Cosmos 1844 Rocket - Visible Passes

Search period start: 25 July 2024 00:00
Search period end: 04 August 2024 00:00
Orbit: 824 x 843 km, 71.0° (Epoch: 24 July)

Date Brightness Start Highest point End Pass type
(mag) Time Alt. Az. Time Alt. Az. Time Alt. Az.
25 Jul 4.0 03:41:33 10° N 03:46:53 42° ENE 03:52:13 10° SE visible
25 Jul 5.9 20:17:43 10° W 20:20:37 14° NW 20:23:32 10° NNW visible
26 Jul 4.2 03:24:10 10° N 03:29:26 39° ENE 03:34:40 10° SE visible
27 Jul 4.3 03:06:49 10° N 03:11:58 35° ENE 03:17:06 10° SE visible
28 Jul 4.4 02:49:28 10° N 02:54:30 32° ENE 02:59:31 10° ESE visible
28 Jul 3.3 04:33:16 10° NW 04:38:21 35° WSW 04:43:24 10° S visible
29 Jul 4.5 02:32:07 10° N 02:37:01 30° ENE 02:41:55 10° ESE visible
29 Jul 3.1 04:15:46 10° NW 04:20:57 39° WSW 04:26:09 10° S visible
30 Jul 4.6 02:14:47 10° N 02:19:32 27° NE 02:24:18 10° ESE visible
30 Jul 3.0 03:58:15 10° NW 04:03:34 43° WSW 04:08:51 10° S visible
31 Jul 4.7 01:57:28 10° N 02:02:03 25° NE 02:06:39 10° ESE visible
31 Jul 2.9 03:40:46 10° NW 03:46:09 48° WSW 03:51:33 10° S visible
01 Aug 4.8 01:40:08 10° N 01:44:35 23° NE 01:48:59 10° ESE visible
01 Aug 2.8 03:23:17 10° NNW 03:28:46 53° WSW 03:32:54 17° S visible
02 Aug 4.9 01:22:51 10° N 01:27:05 21° NE 01:31:18 10° ESE visible
02 Aug 2.7 03:05:49 10° NNW 03:11:21 59° WSW 03:13:49 32° S visible
03 Aug 4.9 01:05:34 10° N 01:09:35 19° NE 01:13:35 10° E visible
03 Aug 2.6 02:48:22 10° NNW 02:53:57 66° WSW 02:55:15 50° SSW visible
